sat.trackr.live / text

‹ back to catalog

STARLINK-36257

NORAD 67903 · 2026-035AA

PAYLOAD ACTIVE UNKNOWN

§ Identity

Operator
Country
US
Launch date
2026-02-21
Launch site
AFWTR
Launch vehicle
Mass (kg)
RCS (m²)

Purposes: comms

External: N2YO · Heavens-Above · Gunter

§ Orbital elements

Epoch: 2026-09-19T06:41:48.578208Z

Period
93.91 min
Inclination
97.2855°
Eccentricity
0.0001324
Mean motion
15.33462155 rev/d
Perigee alt
464.6 km
Apogee alt
466.4 km
Semi-major
6,843.6 km
B*
4.5024e-4
RAAN
194.1136°
Arg perigee
98.7710°
Mean anomaly
261.3683°
Rev number
3,365

§ Raw data

STARLINK-362571 67903U 26035AA  26262.27903447  .00014496  00000+0  45024-3 0  99962 67903  97.2855 194.1136 0001324  98.7710 261.3683 15.33462155 33651

JSON: /api/v1/satellites/67903 · /tle

For live sub-satellite position, see the globe view (requires WebGL).

§ Visibility from observer

Set your observer location to see the next 7 days of passes ≥ 10°. The values pass through the URL so the page stays shareable.

No JS? Fill the form by hand. The geolocation button needs JavaScript.